Time,TemperatureF,DewpointF,PressureIn,WindDirection,WindDirectionDegrees,WindSpeedMPH,WindSpeedGustMPH,Humidity,HourlyPrecipIn,Conditions,Clouds,dailyrainin,SoftwareType,DateUTC
2013-05-14 00:03:00,35.0,31.0,30.07,NNE,17,0.0,0.0,85,0.00,,,0.00,,2013-05-14 04:03:00,
2013-05-14 00:13:00,35.0,31.0,30.07,NNE,17,0.0,0.0,85,0.00,,,0.00,,2013-05-14 04:13:00,
2013-05-14 00:23:00,35.0,31.0,30.07,NNE,18,0.0,0.0,86,0.00,,,0.00,,2013-05-14 04:23:00,
2013-05-14 00:32:00,36.0,32.0,30.07,North,5,0.0,0.0,84,0.00,,,0.00,,2013-05-14 04:32:00,
2013-05-14 00:43:00,36.0,32.0,30.07,North,5,0.0,0.0,84,0.00,,,0.00,,2013-05-14 04:43:00,
2013-05-14 00:53:00,37.0,31.0,30.07,West,274,0.0,3.0,80,0.00,,,0.00,,2013-05-14 04:53:00,
2013-05-14 01:02:00,36.0,31.0,30.06,WNW,282,0.0,1.0,82,0.00,,,0.00,,2013-05-14 05:02:00,
2013-05-14 01:12:00,36.0,31.0,30.06,WNW,282,0.0,1.0,82,0.00,,,0.00,,2013-05-14 05:12:00,
2013-05-14 01:22:00,38.0,32.0,30.06,West,266,1.0,5.0,79,0.00,,,0.00,,2013-05-14 05:22:00,
2013-05-14 01:32:00,39.0,32.0,30.07,WNW,299,0.0,3.0,77,0.00,,,0.00,,2013-05-14 05:32:00,
2013-05-14 01:42:00,39.0,32.0,30.07,WNW,299,0.0,3.0,77,0.00,,,0.00,,2013-05-14 05:42:00,
2013-05-14 01:52:00,39.0,32.0,30.07,WNW,295,0.0,5.0,76,0.00,,,0.00,,2013-05-14 05:52:00,
2013-05-14 02:01:00,38.0,31.0,30.07,North,356,1.0,1.0,76,0.00,,,0.00,,2013-05-14 06:01:00,
2013-05-14 02:12:00,38.0,31.0,30.07,North,356,1.0,1.0,76,0.00,,,0.00,,2013-05-14 06:12:00,
2013-05-14 02:22:00,38.0,31.0,30.07,NE,49,0.0,0.0,76,0.00,,,0.00,,2013-05-14 06:22:00,
2013-05-14 02:32:00,38.0,31.0,30.07,ENE,72,0.0,1.0,76,0.00,,,0.00,,2013-05-14 06:32:00,
2013-05-14 02:42:00,38.0,31.0,30.07,ENE,72,0.0,1.0,76,0.00,,,0.00,,2013-05-14 06:42:00,
2013-05-14 02:51:00,38.0,31.0,30.07,West,276,0.0,1.0,76,0.00,,,0.00,,2013-05-14 06:51:00,
2013-05-14 03:02:00,37.0,30.0,30.07,West,259,0.0,1.0,77,0.00,,,0.00,,2013-05-14 07:02:00,
2013-05-14 03:11:00,37.0,30.0,30.07,West,259,0.0,1.0,77,0.00,,,0.00,,2013-05-14 07:11:00,
2013-05-14 03:21:00,37.0,30.0,30.07,West,260,0.0,1.0,77,0.00,,,0.00,,2013-05-14 07:21:00,
2013-05-14 03:32:00,37.0,30.0,30.07,West,261,0.0,3.0,76,0.00,,,0.00,,2013-05-14 07:32:00,
2013-05-14 03:42:00,37.0,30.0,30.07,North,11,0.0,1.0,76,0.00,,,0.00,,2013-05-14 07:42:00,
2013-05-14 03:52:00,37.0,30.0,30.07,North,11,0.0,1.0,76,0.00,,,0.00,,2013-05-14 07:52:00,
2013-05-14 04:02:00,37.0,30.0,30.08,SSW,197,0.0,0.0,76,0.00,,,0.00,,2013-05-14 08:02:00,
2013-05-14 04:11:00,37.0,30.0,30.08,SSW,197,0.0,0.0,76,0.00,,,0.00,,2013-05-14 08:11:00,
2013-05-14 04:21:00,36.0,29.0,30.08,South,176,0.0,0.0,77,0.00,,,0.00,,2013-05-14 08:21:00,
2013-05-14 04:32:00,37.0,30.0,30.08,NE,39,0.0,2.0,77,0.00,,,0.00,,2013-05-14 08:32:00,
2013-05-14 04:42:00,37.0,30.0,30.08,NNE,33,0.0,2.0,77,0.00,,,0.00,,2013-05-14 08:42:00,
2013-05-14 04:52:00,37.0,30.0,30.08,NNE,33,0.0,2.0,77,0.00,,,0.00,,2013-05-14 08:52:00,
2013-05-14 05:02:00,37.0,30.0,30.08,North,359,0.0,2.0,77,0.00,,,0.00,,2013-05-14 09:02:00,
2013-05-14 05:11:00,37.0,30.0,30.08,North,359,0.0,2.0,77,0.00,,,0.00,,2013-05-14 09:11:00,
2013-05-14 05:22:00,37.0,31.0,30.08,NNW,329,1.0,3.0,78,0.00,,,0.00,,2013-05-14 09:22:00,
2013-05-14 05:32:00,37.0,31.0,30.08,WNW,300,0.0,1.0,79,0.00,,,0.00,,2013-05-14 09:32:00,
2013-05-14 05:44:00,37.0,31.0,30.08,WNW,293,0.0,1.0,79,0.00,,,0.00,,2013-05-14 09:44:00,
2013-05-14 05:54:00,37.0,31.0,30.08,WNW,293,0.0,1.0,79,0.00,,,0.00,,2013-05-14 09:54:00,
2013-05-14 06:05:00,37.0,31.0,30.08,WNW,282,0.0,2.0,79,0.00,,,0.00,,2013-05-14 10:05:00,
2013-05-14 06:14:00,37.0,31.0,30.08,WNW,282,0.0,2.0,79,0.00,,,0.00,,2013-05-14 10:14:00,
2013-05-14 06:25:00,37.0,31.0,30.08,WNW,300,0.0,2.0,80,0.00,,,0.00,,2013-05-14 10:25:00,
2013-05-14 06:33:00,37.0,31.0,30.08,North,5,0.0,2.0,80,0.00,,,0.00,,2013-05-14 10:33:00,
2013-05-14 06:42:00,37.0,31.0,30.08,North,5,0.0,2.0,80,0.00,,,0.00,,2013-05-14 10:42:00,
2013-05-14 06:52:00,38.0,32.0,30.09,NNE,16,0.0,3.0,79,0.00,,,0.00,,2013-05-14 10:52:00,
2013-05-14 07:03:00,40.0,33.0,30.09,NW,314,2.0,5.0,76,0.00,,,0.00,,2013-05-14 11:03:00,
2013-05-14 07:11:00,40.0,33.0,30.09,NW,314,2.0,5.0,76,0.00,,,0.00,,2013-05-14 11:11:00,
2013-05-14 07:22:00,41.0,33.0,30.09,NNW,333,1.0,9.0,74,0.00,,,0.00,,2013-05-14 11:22:00,
2013-05-14 07:32:00,42.0,34.0,30.09,NNW,328,1.0,5.0,72,0.00,,,0.00,,2013-05-14 11:32:00,
2013-05-14 07:43:00,42.0,34.0,30.09,NNW,328,1.0,5.0,72,0.00,,,0.00,,2013-05-14 11:43:00,
2013-05-14 07:52:00,43.0,34.0,30.09,NNW,340,1.0,4.0,70,0.00,,,0.00,,2013-05-14 11:52:00,
2013-05-14 08:03:00,43.0,33.0,30.09,North,356,3.0,6.0,67,0.00,,,0.00,,2013-05-14 12:03:00,
2013-05-14 08:12:00,43.0,33.0,30.09,North,356,3.0,6.0,67,0.00,,,0.00,,2013-05-14 12:12:00,
2013-05-14 08:21:00,44.0,34.0,30.09,WNW,293,2.0,6.0,67,0.00,,,0.00,,2013-05-14 12:21:00,
2013-05-14 08:32:00,46.0,35.0,30.09,WNW,302,1.0,7.0,64,0.00,,,0.00,,2013-05-14 12:32:00,
2013-05-14 08:42:00,46.0,35.0,30.09,WNW,302,1.0,7.0,64,0.00,,,0.00,,2013-05-14 12:42:00,
2013-05-14 08:52:00,46.0,33.0,30.10,WSW,255,2.0,7.0,61,0.00,,,0.00,,2013-05-14 12:52:00,
2013-05-14 09:01:00,47.0,33.0,30.09,WSW,238,3.0,9.0,58,0.00,,,0.00,,2013-05-14 13:01:00,
2013-05-14 09:11:00,47.0,33.0,30.09,WSW,238,3.0,9.0,58,0.00,,,0.00,,2013-05-14 13:11:00,
2013-05-14 09:22:00,47.0,33.0,30.09,NW,309,3.0,7.0,57,0.00,,,0.00,,2013-05-14 13:22:00,
2013-05-14 09:32:00,47.0,33.0,30.09,North,1,4.0,11.0,57,0.00,,,0.00,,2013-05-14 13:32:00,
2013-05-14 09:42:00,47.0,33.0,30.09,North,1,4.0,11.0,57,0.00,,,0.00,,2013-05-14 13:42:00,
2013-05-14 09:52:00,47.0,33.0,30.09,North,1,4.0,11.0,57,0.00,,,0.00,,2013-05-14 13:52:00,
2013-05-14 10:01:00,49.0,34.0,30.09,West,281,2.0,9.0,57,0.00,,,0.00,,2013-05-14 14:01:00,
2013-05-14 10:11:00,50.0,34.0,30.09,NW,308,3.0,8.0,55,0.00,,,0.00,,2013-05-14 14:11:00,
2013-05-14 10:22:00,50.0,34.0,30.09,NW,308,3.0,8.0,55,0.00,,,0.00,,2013-05-14 14:22:00,
2013-05-14 10:32:00,50.0,34.0,30.08,West,260,5.0,11.0,54,0.00,,,0.00,,2013-05-14 14:32:00,
2013-05-14 10:42:00,50.0,34.0,30.08,West,260,5.0,11.0,54,0.00,,,0.00,,2013-05-14 14:42:00,
2013-05-14 10:52:00,50.0,34.0,30.08,WSW,252,3.0,7.0,54,0.00,,,0.00,,2013-05-14 14:52:00,
2013-05-14 11:01:00,52.0,34.0,30.08,WNW,293,3.0,5.0,50,0.00,,,0.00,,2013-05-14 15:01:00,
2013-05-14 11:12:00,52.0,34.0,30.08,WNW,293,3.0,5.0,50,0.00,,,0.00,,2013-05-14 15:12:00,
2013-05-14 11:22:00,53.0,34.0,30.08,NNW,332,2.0,5.0,48,0.00,,,0.00,,2013-05-14 15:22:00,
2013-05-14 11:33:00,53.0,32.0,30.08,NE,50,3.0,8.0,44,0.00,,,0.00,,2013-05-14 15:33:00,
2013-05-14 11:43:00,52.0,31.0,30.07,WSW,255,2.0,7.0,45,0.00,,,0.00,,2013-05-14 15:43:00,
2013-05-14 11:53:00,52.0,31.0,30.07,WSW,255,2.0,7.0,45,0.00,,,0.00,,2013-05-14 15:53:00,
2013-05-14 12:02:00,53.0,31.0,30.07,ENE,60,2.0,6.0,43,0.00,,,0.00,,2013-05-14 16:02:00,
2013-05-14 12:12:00,53.0,31.0,30.07,ENE,60,2.0,6.0,43,0.00,,,0.00,,2013-05-14 16:12:00,
2013-05-14 12:23:00,54.0,30.0,30.07,West,269,3.0,8.0,40,0.00,,,0.00,,2013-05-14 16:23:00,
2013-05-14 12:33:00,53.0,32.0,30.07,NW,305,3.0,12.0,44,0.00,,,0.00,,2013-05-14 16:33:00,
2013-05-14 12:44:00,53.0,32.0,30.07,NW,305,3.0,12.0,44,0.00,,,0.00,,2013-05-14 16:44:00,
2013-05-14 12:54:00,52.0,32.0,30.07,NNE,26,1.0,7.0,47,0.00,,,0.00,,2013-05-14 16:54:00,
2013-05-14 13:03:00,54.0,31.0,30.08,WNW,290,2.0,7.0,41,0.00,,,0.00,,2013-05-14 17:03:00,
2013-05-14 13:13:00,54.0,31.0,30.08,WNW,290,2.0,7.0,41,0.00,,,0.00,,2013-05-14 17:13:00,
2013-05-14 13:24:00,52.0,31.0,30.08,WSW,239,2.0,8.0,45,0.00,,,0.00,,2013-05-14 17:24:00,
2013-05-14 13:33:00,54.0,33.0,30.07,West,266,3.0,8.0,45,0.00,,,0.00,,2013-05-14 17:33:00,
2013-05-14 13:43:00,54.0,33.0,30.07,West,266,3.0,8.0,45,0.00,,,0.00,,2013-05-14 17:43:00,
2013-05-14 13:52:00,55.0,31.0,30.07,NW,308,3.0,11.0,40,0.00,,,0.00,,2013-05-14 17:52:00,
2013-05-14 14:02:00,53.0,32.0,30.08,NNE,33,2.0,11.0,44,0.00,,,0.00,,2013-05-14 18:02:00,
2013-05-14 14:12:00,53.0,32.0,30.08,NNE,33,2.0,11.0,44,0.00,,,0.00,,2013-05-14 18:12:00,
2013-05-14 14:22:00,53.0,31.0,30.07,West,273,3.0,7.0,43,0.00,,,0.00,,2013-05-14 18:22:00,
2013-05-14 14:32:00,53.0,29.0,30.07,East,86,3.0,10.0,39,0.00,,,0.00,,2013-05-14 18:32:00,
2013-05-14 14:42:00,53.0,29.0,30.07,East,86,3.0,10.0,39,0.00,,,0.00,,2013-05-14 18:42:00,
2013-05-14 14:52:00,53.0,31.0,30.07,SW,233,3.0,9.0,42,0.00,,,0.00,,2013-05-14 18:52:00,
2013-05-14 15:01:00,54.0,30.0,30.06,WNW,283,5.0,11.0,39,0.00,,,0.00,,2013-05-14 19:01:00,
2013-05-14 15:12:00,54.0,30.0,30.06,WNW,283,5.0,11.0,39,0.00,,,0.00,,2013-05-14 19:12:00,
2013-05-14 15:22:00,55.0,31.0,30.06,North,5,4.0,7.0,39,0.00,,,0.00,,2013-05-14 19:22:00,
2013-05-14 15:32:00,56.0,32.0,30.05,North,1,2.0,5.0,40,0.00,,,0.00,,2013-05-14 19:32:00,
2013-05-14 15:42:00,56.0,32.0,30.05,North,1,2.0,5.0,40,0.00,,,0.00,,2013-05-14 19:42:00,
2013-05-14 15:52:00,55.0,32.0,30.05,WNW,295,2.0,4.0,42,0.00,,,0.00,,2013-05-14 19:52:00,
2013-05-14 16:02:00,54.0,31.0,30.05,West,270,2.0,8.0,41,0.00,,,0.00,,2013-05-14 20:02:00,
2013-05-14 16:11:00,54.0,31.0,30.05,West,270,2.0,8.0,41,0.00,,,0.00,,2013-05-14 20:11:00,
2013-05-14 16:23:00,55.0,30.0,30.04,West,275,4.0,8.0,38,0.00,,,0.00,,2013-05-14 20:23:00,
2013-05-14 16:33:00,56.0,31.0,30.04,ENE,78,3.0,6.0,38,0.00,,,0.00,,2013-05-14 20:33:00,
2013-05-14 16:44:00,56.0,31.0,30.04,ENE,78,3.0,6.0,38,0.00,,,0.00,,2013-05-14 20:44:00,
2013-05-14 16:52:00,56.0,31.0,30.03,NNE,18,2.0,7.0,39,0.00,,,0.00,,2013-05-14 20:52:00,
2013-05-14 17:03:00,56.0,31.0,30.03,NNE,22,3.0,9.0,38,0.00,,,0.00,,2013-05-14 21:03:00,
2013-05-14 17:12:00,56.0,31.0,30.03,NNE,22,3.0,9.0,38,0.00,,,0.00,,2013-05-14 21:12:00,
2013-05-14 17:23:00,55.0,31.0,30.03,NNW,333,1.0,4.0,39,0.00,,,0.00,,2013-05-14 21:23:00,
2013-05-14 17:33:00,56.0,31.0,30.03,WNW,285,1.0,4.0,39,0.00,,,0.00,,2013-05-14 21:33:00,
2013-05-14 17:43:00,56.0,31.0,30.03,WNW,285,1.0,4.0,39,0.00,,,0.00,,2013-05-14 21:43:00,
2013-05-14 17:52:00,56.0,30.0,30.02,WSW,240,2.0,8.0,37,0.00,,,0.00,,2013-05-14 21:52:00,
2013-05-14 18:03:00,55.0,31.0,30.02,North,357,4.0,10.0,39,0.00,,,0.00,,2013-05-14 22:03:00,
2013-05-14 18:13:00,55.0,31.0,30.02,North,357,4.0,10.0,39,0.00,,,0.00,,2013-05-14 22:13:00,
2013-05-14 18:24:00,55.0,31.0,30.02,NW,325,0.0,5.0,39,0.00,,,0.00,,2013-05-14 22:24:00,
2013-05-14 18:34:00,56.0,31.0,30.02,WNW,290,1.0,3.0,38,0.00,,,0.00,,2013-05-14 22:34:00,
2013-05-14 18:45:00,56.0,31.0,30.02,WNW,290,1.0,3.0,38,0.00,,,0.00,,2013-05-14 22:45:00,
2013-05-14 18:54:00,56.0,31.0,30.02,West,268,2.0,4.0,38,0.00,,,0.00,,2013-05-14 22:54:00,
2013-05-14 19:03:00,56.0,31.0,30.03,WNW,283,1.0,6.0,39,0.00,,,0.00,,2013-05-14 23:03:00,
2013-05-14 19:12:00,56.0,31.0,30.03,WNW,283,1.0,6.0,39,0.00,,,0.00,,2013-05-14 23:12:00,
2013-05-14 19:22:00,56.0,31.0,30.03,North,349,0.0,5.0,39,0.00,,,0.00,,2013-05-14 23:22:00,
2013-05-14 19:32:00,56.0,31.0,30.03,WSW,246,0.0,4.0,38,0.00,,,0.00,,2013-05-14 23:32:00,
2013-05-14 19:44:00,56.0,31.0,30.03,WSW,246,0.0,4.0,38,0.00,,,0.00,,2013-05-14 23:44:00,
2013-05-14 19:52:00,55.0,31.0,30.03,West,268,1.0,3.0,39,0.00,,,0.00,,2013-05-14 23:52:00,
2013-05-14 20:02:00,53.0,30.0,30.03,West,276,1.0,3.0,41,0.00,,,0.00,,2013-05-15 00:02:00,
2013-05-14 20:11:00,53.0,30.0,30.03,West,276,1.0,3.0,41,0.00,,,0.00,,2013-05-15 00:11:00,
2013-05-14 20:21:00,52.0,31.0,30.04,West,275,0.0,1.0,45,0.00,,,0.00,,2013-05-15 00:21:00,
2013-05-14 20:32:00,51.0,33.0,30.04,NNE,15,0.0,2.0,49,0.00,,,0.00,,2013-05-15 00:32:00,
2013-05-14 20:42:00,51.0,33.0,30.04,NNE,15,0.0,2.0,49,0.00,,,0.00,,2013-05-15 00:42:00,
2013-05-14 20:51:00,49.0,32.0,30.04,NNE,15,0.0,0.0,52,0.00,,,0.00,,2013-05-15 00:51:00,
2013-05-14 21:01:00,48.0,33.0,30.05,NNE,15,0.0,0.0,55,0.00,,,0.00,,2013-05-15 01:01:00,
2013-05-14 21:11:00,48.0,33.0,30.05,NNE,15,0.0,0.0,55,0.00,,,0.00,,2013-05-15 01:11:00,
2013-05-14 21:22:00,48.0,33.0,30.05,NNE,15,0.0,0.0,56,0.00,,,0.00,,2013-05-15 01:22:00,
2013-05-14 21:32:00,47.0,33.0,30.06,NNE,16,0.0,0.0,58,0.00,,,0.00,,2013-05-15 01:32:00,
2013-05-14 21:42:00,47.0,33.0,30.06,NNE,16,0.0,0.0,58,0.00,,,0.00,,2013-05-15 01:42:00,
2013-05-14 21:52:00,44.0,33.0,30.07,NNE,16,0.0,0.0,65,0.00,,,0.00,,2013-05-15 01:52:00,
2013-05-14 22:02:00,43.0,34.0,30.07,NNE,15,0.0,0.0,69,0.00,,,0.00,,2013-05-15 02:02:00,
2013-05-14 22:11:00,43.0,34.0,30.07,NNE,15,0.0,0.0,69,0.00,,,0.00,,2013-05-15 02:11:00,
2013-05-14 22:22:00,43.0,35.0,30.07,NNE,16,0.0,0.0,72,0.00,,,0.00,,2013-05-15 02:22:00,
2013-05-14 22:32:00,42.0,34.0,30.07,NNE,15,0.0,0.0,73,0.00,,,0.00,,2013-05-15 02:32:00,
2013-05-14 22:42:00,42.0,34.0,30.07,NNE,15,0.0,0.0,73,0.00,,,0.00,,2013-05-15 02:42:00,
2013-05-14 22:52:00,42.0,34.0,30.07,NNE,15,0.0,0.0,73,0.00,,,0.00,,2013-05-15 02:52:00,
2013-05-14 23:01:00,41.0,34.0,30.07,NNE,15,0.0,0.0,76,0.00,,,0.00,,2013-05-15 03:01:00,
2013-05-14 23:13:00,41.0,34.0,30.07,NNE,15,0.0,0.0,76,0.00,,,0.00,,2013-05-15 03:13:00,
2013-05-14 23:22:00,40.0,34.0,30.08,NNE,16,0.0,0.0,78,0.00,,,0.00,,2013-05-15 03:22:00,
2013-05-14 23:33:00,40.0,34.0,30.08,NNE,15,0.0,0.0,79,0.00,,,0.00,,2013-05-15 03:33:00,
2013-05-14 23:44:00,40.0,35.0,30.08,NNE,16,0.0,0.0,82,0.00,,,0.00,,2013-05-15 03:44:00,
2013-05-14 23:54:00,40.0,35.0,30.08,NNE,16,0.0,0.0,82,0.00,,,0.00,,2013-05-15 03:54:00,